Regional Weather Roundup
Issued by NWS Green Bay, WI

Home | Current Version | Previous Version | Text Only | Print | Product List | Glossary On
Versions: 1 2 3 4 5 6 7 8 9 10 11 12 13 14 15 16 17 18 19 20 21 22 23 24 25 26 27 28 29 30 31 32 33 34 35 36 37 38 39 40 41 42 43 44 45 46 47 48 49 50
000
ASUS43 KGRB 182211
RWRGRB

NORTH-CENTRAL AND NORTHEAST WISCONSIN REGIONAL WEATHER ROUNDUP
NATIONAL WEATHER SERVICE GREEN BAY WI
400 PM CST WED JAN 18 2017

WIZ005-009-010>012-018-019-182300-
NORTH CENTRAL WISCONSIN

CITY           SKY/WX    TMP DP  RH WIND       PRES   REMARKS
IRONWOOD       CLEAR     46  28  49 SW9       29.80R
MANITOWISH WTR CLEAR     40  27  60 SW10      29.81R
ARBOR VITAE    CLEAR     43  29  58 SW8       29.82R
EAGLE RIVER    CLEAR     41  27  57 SW10      29.81R
LAND O LAKES   CLEAR     45  24  43 W8        29.82R
RHINELANDER    CLEAR     39  30  70 SW13G18   29.84R
PHILLIPS       CLEAR     37  29  72 SW8       29.84R
ANTIGO         CLEAR     36  31  83 SW7       29.86S
TOMAHAWK       CLEAR     37  29  71 SW3       29.85R
MERRILL        CLEAR     38  32  76 SW8         N/A
$$

WIZ013-073-182300-
NORTHEAST WISCONSIN

CITY           SKY/WX    TMP DP  RH WIND       PRES   REMARKS
IRON MOUNTAIN  CLEAR     45  27  49 SW7       29.80R
MARINETTE      NOT AVBL
OCONTO         CLEAR     36  31  82 SW10G17   29.88F
$$

WIZ017-030-035>037-045-182300-
CENTRAL WISCONSIN

CITY           SKY/WX    TMP DP  RH WIND       PRES   REMARKS
MEDFORD        CLEAR     36  30  79 S7        29.86S
WAUSAU         CLEAR     39  31  72 SW8       29.86F
MOSINEE        CLEAR     37  32  81 SW10      29.89S
MARSHFIELD     CLEAR     39  29  67 W12       29.88S
WISC RAPIDS    CLEAR     40  30  67 SW13      29.92R
STEVENS POINT  CLEAR     38  30  72 SW10      29.90S
WAUPACA        CLEAR     43  32  65 SW9       29.92R
SHAWANO        CLEAR     42  33  70 SW6       29.89S
CLINTONVILLE   CLEAR     41  32  70 SW9       29.89F
WAUTOMA        CLEAR     39  31  72 SW9       29.95
$$

WIZ038-039-048-051-182300-
FOX VALLEY

CITY           SKY/WX    TMP DP  RH WIND       PRES   REMARKS
NWS GREEN BAY  CLEAR     37  33  85 S12       29.91S
APPLETON       CLEAR     36  32  87 S16       29.90F
OSHKOSH        CLEAR     34  30  85 SW9       29.95R
FOND DU LAC    CLEAR     35  29  78 S12       29.95S
$$

WIZ022-050-052-182300-
EAST CENTRAL WISCONSIN

CITY           SKY/WX    TMP DP  RH WIND       PRES   REMARKS
EPHRAIM        FAIR      35  32  88 SW13G24   29.87R
WASHINGTON ISL FAIR      35  31  83 SW14G22   29.87R
STURGEON BAY   CLEAR     36  31  82 SW14G24   29.89S
MANITOWOC      CLEAR     39  31  72 MISG      29.94F
SHEBOYGAN      CLEAR     36  31  82 SW12      29.96S
$$

LMZ563-521-522-541>543-182300-
LAKESHORE

STATION/POSITION TIME  TEMP    WIND        PRES    VSBY  WAVE
                       AIR SEA DIR/SP/G                  HT/PER
                 (UTC) (F)     (DEG/KT/KT) (MB)    (MI)  (FT/S)
SHEBOYGAN LKSHOR 2200   37     220/ 15/ 16 1014.6F
KEWAUNEE LKSHORE 2148   38     220/ 12/ 17 1012.5F
NORTHPORT PIER   2140   39     200/  7/ 13 1011.5R
MENOMINEE LKSHOR 2148          180/  7/ 13 1010.9R
$$



USA.gov is the U.S. government's official web portal to all federal, state and local government web resources and services.